User: anonymous   Login
Location: Kervinic
(48.4279°N, 4.7373°W)
Time: 23:02:56
(UTC+00:00)
Language:

Cosmos 2218 Rocket - Orbit

View from above orbital plane
View from above orbital plane
View from above satellite
View from above satellite

Ground track
Ground track

The orbit data is extracted from the following two-line orbital elements,

1 22208U 92073B   20188.52872885 +.00000033 +00000-0 +18831-4 0  9990
2 22208 082.9189 273.5457 0034761 164.9136 206.1768 13.75156661389031
Epoch (UTC): 06 July 2020 12:41:22
Eccentricity: 0.0034761
inclination: 82.9189°
perigee height: 955 km
apogee height: 1006 km
right ascension of ascending node: 273.5457°
argument of perigee: 164.9136°
revolutions per day: 13.75156661
mean anomaly at epoch: 206.1768°
orbit number at epoch: 38903

The dashed part of the orbit path shows where the satellite is in the earth's shadow,  

DLR